Palma De Mallorca, Spain

2:09 PM CEST on August 28, 2016 (GMT +0200)
Palma De Mallorca

Weather History for LEPA - November, 2012

Change the Weather History Date:

Saturday, November 3, 2012

  Actual Average Record
Temperature  
Mean Temperature 59 °F -  
Max Temperature 68 °F 64 °F 79 °F (2013)
Min Temperature 50 °F 45 °F 42 °F (2007)
Degree Days  
Heating Degree Days 6    
Growing Degree Days 9 (Base 50)    
Moisture  
Dew Point 59 °F    
Average Humidity 89    
Maximum Humidity 100    
Minimum Humidity 68    
Precipitation  
Precipitation 0.00 in 0.06 in - ()
Sea Level Pressure  
Sea Level Pressure 29.88 in    
Wind  
Wind Speed 4 mph ()    
Max Wind Speed 14 mph    
Max Gust Speed -    
Visibility 6.6 miles    
Events Rain    
Averages and records for this station are not official NWS values.
T = Trace of Precipitation, MM = Missing Value Source: Averaged Metar Reports

Daily Weather History Graph

Daily Weather History Graph

Search for Another Location

Airport or City:

Trip Planner

Search our weather history database for the weather conditions in past years. The results will help you decide how hot, cold, wet, or windy it might be!

Date:

Astronomy

Nov. 03, 2012 Rise Set
Actual Time 7:19 AM CET 5:44 PM CET
Civil Twilight 6:51 AM CET 6:12 PM CET
Nautical Twilight 6:19 AM CET 6:44 PM CET
Astronomical Twilight 5:48 AM CET 7:16 PM CET
Moon 9:12 PM CET (11/3) 11:12 AM CET (11/3)
Length of Visible Light 11h 21m
Length of Day
10h 24m
Waning Gibbous, 82% of the Moon is Illuminated
Nov 3
Waning Gibbous
Nov 7
Last Quarter
Nov 13
New
Nov 20
First Quarter
Nov 28
Full

Hourly Weather History & Observations

Time (CET) Temp. Dew Point Humidity Pressure Visibility Wind Dir Wind Speed Gust Speed Precip Events Conditions
12:00 AM 53.6 °F 51.8 °F 94% 29.98 in 6.2 mi Variable 1.2 mph - N/A   Partly Cloudy
12:30 AM 51.8 °F 50.0 °F 94% 29.98 in 6.2 mi Variable 1.2 mph - N/A   Partly Cloudy
1:00 AM 51 °F 48 °F 84% 29.98 in 16 mi North 1.2 mph - -   Scattered Clouds
1:00 AM 51.8 °F 50.0 °F 94% 29.98 in 6.2 mi NNE 2.3 mph - N/A   Partly Cloudy
1:30 AM 51.8 °F 50.0 °F 94% 29.98 in 6.2 mi Variable 2.3 mph - N/A   Partly Cloudy
2:00 AM 51.8 °F 50.0 °F 94% 29.98 in 6.2 mi Variable 2.3 mph - N/A   Partly Cloudy
2:30 AM 53.6 °F 51.8 °F 94% 29.95 in 6.2 mi NE 3.5 mph - N/A   Partly Cloudy
3:00 AM 55.4 °F 53.6 °F 94% 29.95 in 6.2 mi NE 4.6 mph - N/A   Partly Cloudy
3:30 AM 55.4 °F 53.6 °F 94% 29.92 in 6.2 mi Variable 2.3 mph - N/A   Partly Cloudy
4:00 AM 55.4 °F 55.4 °F 100% 29.92 in 6.2 mi Variable 1.2 mph - N/A   Partly Cloudy
4:30 AM 57.2 °F 55.4 °F 94% 29.92 in 6.2 mi ENE 4.6 mph - N/A   Partly Cloudy
5:00 AM 57.2 °F 55.4 °F 94% 29.92 in 6.2 mi NE 3.5 mph - N/A   Partly Cloudy
5:30 AM 57.2 °F 55.4 °F 94% 29.89 in 6.2 mi Variable 2.3 mph - N/A   Partly Cloudy
6:00 AM 55.4 °F 53.6 °F 94% 29.89 in 6.2 mi NE 1.2 mph - N/A   Partly Cloudy
6:30 AM 55.4 °F 55.4 °F 100% 29.89 in 6.2 mi NNE 1.2 mph - N/A   Partly Cloudy
7:00 AM 55 °F 52 °F 88% 29.91 in 12 mi Calm Calm - -   Scattered Clouds
7:00 AM 57.2 °F 55.4 °F 94% 29.89 in 6.2 mi Variable 1.2 mph - N/A   Partly Cloudy
7:30 AM 57.2 °F 55.4 °F 94% 29.89 in 6.2 mi Calm Calm - N/A   Scattered Clouds
8:00 AM 59.0 °F 57.2 °F 94% 29.92 in 6.2 mi NE 1.2 mph - N/A   Scattered Clouds
8:30 AM 60.8 °F 59.0 °F 94% 29.92 in 6.2 mi Calm Calm - N/A   Scattered Clouds
9:00 AM 62.6 °F 60.8 °F 94% 29.92 in 6.2 mi Calm Calm - N/A   Scattered Clouds
9:30 AM 64.4 °F 62.6 °F 94% 29.89 in 6.2 mi Variable 1.2 mph - N/A   Mostly Cloudy
10:00 AM 68.0 °F 60.8 °F 78% 29.92 in 6.2 mi SSW 5.8 mph - N/A   Mostly Cloudy
10:30 AM 68.0 °F 60.8 °F 78% 29.89 in 6.2 mi SSW 6.9 mph - N/A   Mostly Cloudy
11:00 AM 68.0 °F 60.8 °F 78% 29.89 in 6.2 mi SSW 13.8 mph - N/A Rain Light Rain
11:30 AM 68.0 °F 60.8 °F 78% 29.89 in 6.2 mi SSW 12.7 mph - N/A   Mostly Cloudy
12:00 PM 66.2 °F 60.8 °F 83% 29.89 in 6.2 mi SSW 13.8 mph - N/A   Mostly Cloudy
12:30 PM 66.2 °F 60.8 °F 83% 29.86 in 6.2 mi SW 12.7 mph - N/A   Mostly Cloudy
1:00 PM 67 °F 59 °F 68% 29.88 in 9 mi SW 13.8 mph - -   Partly Cloudy
1:00 PM 68.0 °F 62.6 °F 83% 29.86 in 6.2 mi SW 12.7 mph - N/A   Mostly Cloudy
1:30 PM 68.0 °F 60.8 °F 78% 29.86 in 6.2 mi SW 12.7 mph - N/A   Mostly Cloudy
2:00 PM 68.0 °F 60.8 °F 78% 29.83 in 6.2 mi SW 12.7 mph - N/A   Overcast
2:30 PM 68.0 °F 62.6 °F 83% 29.83 in 6.2 mi SW 9.2 mph - N/A   Overcast
3:00 PM 68.0 °F 62.6 °F 83% 29.83 in 6.2 mi SW 8.1 mph - N/A   Mostly Cloudy
3:30 PM 68.0 °F 64.4 °F 88% 29.83 in 6.2 mi SW 9.2 mph - N/A   Mostly Cloudy
4:00 PM 68.0 °F 64.4 °F 88% 29.80 in 6.2 mi SSW 5.8 mph - N/A   Mostly Cloudy
4:30 PM 68.0 °F 64.4 °F 88% 29.80 in 6.2 mi SW 6.9 mph - N/A   Mostly Cloudy
5:00 PM 68.0 °F 64.4 °F 88% 29.80 in 6.2 mi SW 6.9 mph - N/A   Mostly Cloudy
5:30 PM 68.0 °F 64.4 °F 88% 29.80 in 6.2 mi SW 5.8 mph - N/A   Mostly Cloudy
6:00 PM 68.0 °F 64.4 °F 88% 29.83 in 6.2 mi SW 5.8 mph - N/A   Mostly Cloudy
6:30 PM 68.0 °F 64.4 °F 88% 29.83 in 6.2 mi SSW 6.9 mph - N/A   Mostly Cloudy
7:00 PM 67 °F 62 °F 81% 29.83 in 9 mi SW 9.2 mph - -   Partly Cloudy
7:00 PM 68.0 °F 64.4 °F 88% 29.83 in 6.2 mi SSW 5.8 mph - N/A   Mostly Cloudy
7:30 PM 68.0 °F 64.4 °F 88% 29.83 in 6.2 mi SW 2.3 mph - N/A Rain Light Rain
8:00 PM 68.0 °F 64.4 °F 88% 29.83 in 6.2 mi Variable 1.2 mph - N/A   Mostly Cloudy
8:30 PM 68.0 °F 64.4 °F 88% 29.83 in 6.2 mi SW 3.5 mph - N/A   Mostly Cloudy
9:00 PM 68.0 °F 66.2 °F 94% 29.83 in 6.2 mi SSW 8.1 mph - N/A   Light Drizzle
9:30 PM 68.0 °F 66.2 °F 94% 29.83 in 5.6 mi SW 4.6 mph - N/A   Drizzle
10:00 PM 68.0 °F 66.2 °F 94% 29.83 in 5.6 mi SSW 3.5 mph - N/A   Mostly Cloudy
10:30 PM 68.0 °F 66.2 °F 94% 29.80 in 5.6 mi Calm Calm - N/A   Mostly Cloudy
11:00 PM 66.2 °F 66.2 °F 100% 29.83 in 5.6 mi SW 4.6 mph - N/A   Mostly Cloudy
11:30 PM 66.2 °F 66.2 °F 100% 29.80 in 6.2 mi SSW 3.5 mph - N/A   Mostly Cloudy